Time,TemperatureF,DewpointF,PressureIn,WindDirection,WindDirectionDegrees,WindSpeedMPH,WindSpeedGustMPH,Humidity,HourlyPrecipIn,Conditions,Clouds,dailyrainin,SoftwareType,DateUTC
2013-07-07 01:11:00,66.0,65.0,30.00,SSE,161,3.0,6.0,97,0.00,,,0.00,,2013-07-07 06:11:00,
2013-07-07 01:21:00,66.0,65.0,30.00,SSE,161,3.0,6.0,97,0.00,,,0.00,,2013-07-07 06:21:00,
2013-07-07 01:32:00,66.0,65.0,29.98,SE,143,4.0,8.0,96,0.00,,,0.00,,2013-07-07 06:32:00,
2013-07-07 01:43:00,66.0,65.0,29.98,SE,143,4.0,8.0,96,0.00,,,0.00,,2013-07-07 06:43:00,
2013-07-07 01:52:00,66.0,65.0,29.98,SE,145,3.0,7.0,96,0.00,,,0.00,,2013-07-07 06:52:00,
2013-07-07 02:02:00,67.0,66.0,29.98,SSE,157,4.0,7.0,96,0.00,,,0.00,,2013-07-07 07:02:00,
2013-07-07 02:11:00,67.0,66.0,29.98,SSE,157,4.0,7.0,96,0.00,,,0.00,,2013-07-07 07:11:00,
2013-07-07 02:22:00,67.0,66.0,29.98,SSE,157,3.0,7.0,96,0.00,,,0.00,,2013-07-07 07:22:00,
2013-07-07 02:33:00,67.0,66.0,29.98,SSE,165,3.0,7.0,95,0.00,,,0.00,,2013-07-07 07:33:00,
2013-07-07 02:44:00,67.0,66.0,29.98,SSE,165,3.0,7.0,95,0.00,,,0.00,,2013-07-07 07:44:00,
2013-07-07 02:53:00,66.0,65.0,29.98,SSE,165,3.0,8.0,95,0.00,,,0.00,,2013-07-07 07:53:00,
2013-07-07 03:02:00,66.0,65.0,29.97,SSE,165,3.0,6.0,95,0.00,,,0.00,,2013-07-07 08:02:00,
2013-07-07 03:12:00,66.0,65.0,29.97,SSE,165,3.0,6.0,95,0.00,,,0.00,,2013-07-07 08:12:00,
2013-07-07 03:22:00,66.0,65.0,29.97,SSE,165,2.0,5.0,96,0.00,,,0.00,,2013-07-07 08:22:00,
2013-07-07 03:34:00,65.0,64.0,29.97,SSE,165,3.0,7.0,96,0.00,,,0.00,,2013-07-07 08:34:00,
2013-07-07 03:44:00,65.0,64.0,29.97,SSE,165,3.0,7.0,96,0.00,,,0.00,,2013-07-07 08:44:00,
2013-07-07 03:53:00,65.0,64.0,29.97,SSE,165,3.0,6.0,96,0.00,,,0.00,,2013-07-07 08:53:00,
2013-07-07 04:02:00,65.0,64.0,29.97,SSE,165,3.0,6.0,96,0.00,,,0.00,,2013-07-07 09:02:00,
2013-07-07 04:12:00,65.0,64.0,29.97,SSE,165,3.0,6.0,96,0.00,,,0.00,,2013-07-07 09:12:00,
2013-07-07 04:22:00,65.0,64.0,29.98,SSE,165,3.0,5.0,96,0.00,,,0.00,,2013-07-07 09:22:00,
2013-07-07 04:34:00,64.0,63.0,29.98,SSE,165,2.0,5.0,96,0.00,,,0.00,,2013-07-07 09:34:00,
2013-07-07 04:43:00,64.0,63.0,29.98,SSE,165,2.0,5.0,96,0.00,,,0.00,,2013-07-07 09:43:00,
2013-07-07 04:53:00,64.0,63.0,29.97,SSE,165,3.0,5.0,96,0.00,,,0.00,,2013-07-07 09:53:00,
2013-07-07 05:03:00,65.0,64.0,29.98,SSE,165,4.0,8.0,97,0.00,,,0.00,,2013-07-07 10:03:00,
2013-07-07 05:12:00,65.0,64.0,29.98,SSE,165,4.0,8.0,97,0.00,,,0.00,,2013-07-07 10:12:00,
2013-07-07 05:22:00,65.0,64.0,29.99,SSE,166,3.0,9.0,97,0.00,,,0.00,,2013-07-07 10:22:00,
2013-07-07 05:32:00,65.0,64.0,29.98,South,171,4.0,9.0,97,0.00,,,0.00,,2013-07-07 10:32:00,
2013-07-07 05:43:00,65.0,64.0,29.98,South,171,4.0,9.0,97,0.00,,,0.00,,2013-07-07 10:43:00,
2013-07-07 05:52:00,65.0,64.0,29.99,South,171,3.0,8.0,97,0.00,,,0.00,,2013-07-07 10:52:00,
2013-07-07 06:02:00,65.0,64.0,30.00,South,171,3.0,6.0,97,0.00,,,0.00,,2013-07-07 11:02:00,
2013-07-07 06:11:00,65.0,64.0,30.00,South,171,3.0,6.0,97,0.00,,,0.00,,2013-07-07 11:11:00,
2013-07-07 06:23:00,65.0,64.0,30.00,South,171,4.0,7.0,97,0.00,,,0.00,,2013-07-07 11:23:00,
2013-07-07 06:34:00,65.0,64.0,30.01,South,171,3.0,6.0,97,0.00,,,0.00,,2013-07-07 11:34:00,
2013-07-07 06:43:00,65.0,64.0,30.01,South,171,3.0,6.0,97,0.00,,,0.00,,2013-07-07 11:43:00,
2013-07-07 06:53:00,65.0,64.0,30.01,South,174,3.0,9.0,97,0.01,,,0.01,,2013-07-07 11:53:00,
2013-07-07 07:02:00,66.0,65.0,30.01,South,174,4.0,7.0,97,0.01,,,0.01,,2013-07-07 12:02:00,
2013-07-07 07:12:00,66.0,65.0,30.01,South,174,4.0,7.0,97,0.01,,,0.01,,2013-07-07 12:12:00,
2013-07-07 07:22:00,66.0,65.0,30.01,South,180,5.0,8.0,98,0.01,,,0.01,,2013-07-07 12:22:00,
2013-07-07 07:34:00,66.0,65.0,30.02,South,180,3.0,7.0,98,0.01,,,0.01,,2013-07-07 12:34:00,
2013-07-07 07:43:00,66.0,65.0,30.02,South,180,3.0,7.0,98,0.01,,,0.01,,2013-07-07 12:43:00,
2013-07-07 07:52:00,67.0,66.0,30.02,South,180,4.0,8.0,98,0.00,,,0.01,,2013-07-07 12:52:00,
2013-07-07 08:02:00,67.0,66.0,30.02,South,180,3.0,6.0,98,0.00,,,0.01,,2013-07-07 13:02:00,
2013-07-07 08:11:00,67.0,66.0,30.02,South,180,3.0,6.0,98,0.00,,,0.01,,2013-07-07 13:11:00,
2013-07-07 08:22:00,67.0,66.0,30.02,South,180,3.0,6.0,98,0.00,,,0.01,,2013-07-07 13:22:00,
2013-07-07 08:34:00,68.0,67.0,30.02,South,180,5.0,9.0,98,0.00,,,0.01,,2013-07-07 13:34:00,
2013-07-07 08:43:00,68.0,67.0,30.02,South,180,5.0,9.0,98,0.00,,,0.01,,2013-07-07 13:43:00,
2013-07-07 08:52:00,68.0,67.0,30.02,South,182,5.0,9.0,98,0.00,,,0.01,,2013-07-07 13:52:00,
2013-07-07 09:02:00,69.0,68.0,30.01,SSE,167,8.0,12.0,97,0.00,,,0.01,,2013-07-07 14:02:00,
2013-07-07 09:12:00,69.0,68.0,30.01,SSE,167,8.0,12.0,97,0.00,,,0.01,,2013-07-07 14:12:00,
2013-07-07 09:22:00,70.0,68.0,30.01,SSW,195,6.0,11.0,95,0.00,,,0.01,,2013-07-07 14:22:00,
2013-07-07 09:34:00,71.0,68.0,30.01,South,186,7.0,14.0,90,0.00,,,0.01,,2013-07-07 14:34:00,
2013-07-07 09:43:00,71.0,68.0,30.01,South,186,7.0,14.0,90,0.00,,,0.01,,2013-07-07 14:43:00,
2013-07-07 09:53:00,72.0,67.0,30.02,SSW,200,7.0,11.0,85,0.00,,,0.01,,2013-07-07 14:53:00,
2013-07-07 10:02:00,73.0,68.0,30.02,South,182,7.0,11.0,85,0.00,,,0.01,,2013-07-07 15:02:00,
2013-07-07 10:11:00,73.0,68.0,30.02,South,182,7.0,11.0,85,0.00,,,0.01,,2013-07-07 15:11:00,
2013-07-07 10:22:00,74.0,69.0,30.02,SSW,192,5.0,9.0,84,0.00,,,0.01,,2013-07-07 15:22:00,
2013-07-07 10:34:00,74.0,69.0,30.02,South,171,4.0,12.0,84,0.00,,,0.01,,2013-07-07 15:34:00,
2013-07-07 10:43:00,74.0,69.0,30.02,South,171,4.0,12.0,84,0.00,,,0.01,,2013-07-07 15:43:00,
2013-07-07 10:52:00,75.0,70.0,30.01,South,186,5.0,12.0,84,0.00,,,0.01,,2013-07-07 15:52:00,
2013-07-07 11:01:00,76.0,71.0,30.02,South,178,5.0,12.0,84,0.00,,,0.01,,2013-07-07 16:01:00,
2013-07-07 11:11:00,76.0,71.0,30.02,South,178,5.0,12.0,84,0.00,,,0.01,,2013-07-07 16:11:00,
2013-07-07 11:23:00,77.0,71.0,30.02,South,173,5.0,11.0,82,0.00,,,0.01,,2013-07-07 16:23:00,
2013-07-07 11:43:00,77.0,70.0,30.02,SSW,195,7.0,10.0,79,0.00,,,0.01,,2013-07-07 16:43:00,
2013-07-07 11:53:00,78.0,71.0,30.02,South,190,5.0,10.0,78,0.00,,,0.01,,2013-07-07 16:53:00,
2013-07-07 12:02:00,78.0,71.0,30.01,SE,146,6.0,9.0,78,0.00,,,0.01,,2013-07-07 17:02:00,
2013-07-07 12:12:00,78.0,71.0,30.01,SE,146,6.0,9.0,78,0.00,,,0.01,,2013-07-07 17:12:00,
2013-07-07 12:22:00,78.0,70.0,30.01,South,176,6.0,10.0,77,0.00,,,0.01,,2013-07-07 17:22:00,
2013-07-07 12:34:00,79.0,72.0,30.00,South,185,6.0,10.0,78,0.00,,,0.01,,2013-07-07 17:34:00,
2013-07-07 12:43:00,79.0,72.0,30.00,South,185,6.0,10.0,78,0.00,,,0.01,,2013-07-07 17:43:00,
2013-07-07 12:53:00,80.0,72.0,30.00,SSW,194,5.0,10.0,76,0.00,,,0.01,,2013-07-07 17:53:00,
2013-07-07 13:02:00,80.0,71.0,30.00,South,188,6.0,11.0,74,0.00,,,0.01,,2013-07-07 18:02:00,
2013-07-07 13:11:00,80.0,71.0,30.00,South,188,6.0,11.0,74,0.00,,,0.01,,2013-07-07 18:11:00,
2013-07-07 13:22:00,81.0,72.0,30.00,SSW,198,5.0,9.0,75,0.00,,,0.01,,2013-07-07 18:22:00,
2013-07-07 13:33:00,81.0,72.0,30.00,South,182,5.0,12.0,75,0.00,,,0.01,,2013-07-07 18:33:00,
2013-07-07 13:43:00,81.0,72.0,30.00,South,182,5.0,12.0,75,0.00,,,0.01,,2013-07-07 18:43:00,
2013-07-07 13:53:00,82.0,72.0,29.99,SSE,167,6.0,12.0,72,0.00,,,0.01,,2013-07-07 18:53:00,
2013-07-07 14:01:00,82.0,72.0,29.99,South,179,7.0,13.0,71,0.00,,,0.01,,2013-07-07 19:01:00,
2013-07-07 14:11:00,82.0,72.0,29.99,South,179,7.0,13.0,71,0.00,,,0.01,,2013-07-07 19:11:00,
2013-07-07 14:22:00,83.0,73.0,29.98,SSW,206,6.0,12.0,71,0.00,,,0.01,,2013-07-07 19:22:00,
2013-07-07 14:34:00,83.0,72.0,29.98,SSE,163,7.0,11.0,70,0.00,,,0.01,,2013-07-07 19:34:00,
2013-07-07 14:43:00,83.0,72.0,29.98,SSE,163,7.0,11.0,70,0.00,,,0.01,,2013-07-07 19:43:00,
2013-07-07 14:54:00,83.0,73.0,29.98,South,186,6.0,12.0,72,0.00,,,0.01,,2013-07-07 19:54:00,
2013-07-07 15:02:00,83.0,72.0,29.98,SSE,166,7.0,15.0,70,0.00,,,0.01,,2013-07-07 20:02:00,
2013-07-07 15:11:00,83.0,72.0,29.98,SSE,166,7.0,15.0,70,0.00,,,0.01,,2013-07-07 20:11:00,
2013-07-07 15:22:00,83.0,74.0,29.98,SSE,167,7.0,12.0,74,0.00,,,0.01,,2013-07-07 20:22:00,
2013-07-07 15:34:00,84.0,73.0,29.97,SSE,158,7.0,12.0,70,0.00,,,0.01,,2013-07-07 20:34:00,
2013-07-07 15:42:00,84.0,73.0,29.97,SSE,158,7.0,12.0,70,0.00,,,0.01,,2013-07-07 20:42:00,
2013-07-07 15:53:00,83.0,72.0,29.97,SSE,161,8.0,13.0,69,0.00,,,0.01,,2013-07-07 20:53:00,
2013-07-07 16:02:00,83.0,73.0,29.96,South,177,8.0,14.0,71,0.00,,,0.01,,2013-07-07 21:02:00,
2013-07-07 16:11:00,83.0,73.0,29.96,South,177,8.0,14.0,71,0.00,,,0.01,,2013-07-07 21:11:00,
2013-07-07 16:22:00,83.0,73.0,29.96,SSE,163,6.0,11.0,72,0.00,,,0.01,,2013-07-07 21:22:00,
2013-07-07 16:33:00,83.0,73.0,29.96,SSW,192,5.0,13.0,73,0.00,,,0.01,,2013-07-07 21:33:00,
2013-07-07 16:43:00,83.0,73.0,29.96,SSW,192,5.0,13.0,73,0.00,,,0.01,,2013-07-07 21:43:00,
2013-07-07 16:53:00,83.0,72.0,29.95,SSE,148,7.0,13.0,70,0.00,,,0.01,,2013-07-07 21:53:00,
2013-07-07 17:01:00,84.0,74.0,29.95,SSE,160,5.0,11.0,71,0.00,,,0.01,,2013-07-07 22:01:00,
2013-07-07 17:11:00,84.0,74.0,29.95,SSE,160,5.0,11.0,71,0.00,,,0.01,,2013-07-07 22:11:00,
2013-07-07 17:22:00,84.0,73.0,29.95,SSE,165,5.0,14.0,70,0.00,,,0.01,,2013-07-07 22:22:00,
2013-07-07 17:34:00,84.0,73.0,29.95,South,181,7.0,13.0,69,0.00,,,0.01,,2013-07-07 22:34:00,
2013-07-07 17:43:00,84.0,73.0,29.95,South,181,7.0,13.0,69,0.00,,,0.01,,2013-07-07 22:43:00,
2013-07-07 17:53:00,84.0,73.0,29.94,SSW,195,9.0,15.0,69,0.00,,,0.01,,2013-07-07 22:53:00,
2013-07-07 18:02:00,84.0,73.0,29.94,SSW,195,9.0,15.0,69,0.00,,,0.01,,2013-07-07 23:02:00,
2013-07-07 18:12:00,84.0,73.0,29.94,SSE,161,8.0,14.0,69,0.00,,,0.01,,2013-07-07 23:12:00,
2013-07-07 18:22:00,84.0,73.0,29.94,South,175,5.0,13.0,70,0.00,,,0.01,,2013-07-07 23:22:00,
2013-07-07 18:33:00,84.0,73.0,29.94,South,175,5.0,13.0,70,0.00,,,0.01,,2013-07-07 23:33:00,
2013-07-07 18:43:00,83.0,73.0,29.94,SSE,164,6.0,11.0,71,0.00,,,0.01,,2013-07-07 23:43:00,
2013-07-07 18:53:00,83.0,73.0,29.95,South,188,3.0,12.0,72,0.00,,,0.01,,2013-07-07 23:53:00,
2013-07-07 19:01:00,83.0,73.0,29.95,South,188,3.0,12.0,72,0.00,,,0.01,,2013-07-08 00:01:00,
2013-07-07 19:12:00,83.0,72.0,29.95,South,178,6.0,9.0,69,0.00,,,0.01,,2013-07-08 00:12:00,
2013-07-07 19:22:00,83.0,72.0,29.95,South,178,6.0,9.0,69,0.00,,,0.01,,2013-07-08 00:22:00,
2013-07-07 19:33:00,83.0,72.0,29.95,South,178,6.0,9.0,69,0.00,,,0.01,,2013-07-08 00:33:00,
2013-07-07 19:43:00,82.0,72.0,29.95,South,184,5.0,9.0,73,0.00,,,0.01,,2013-07-08 00:43:00,
2013-07-07 19:53:00,81.0,73.0,29.96,South,178,4.0,7.0,76,0.00,,,0.01,,2013-07-08 00:53:00,
2013-07-07 20:01:00,81.0,73.0,29.96,South,178,4.0,7.0,76,0.00,,,0.01,,2013-07-08 01:01:00,
2013-07-07 20:11:00,80.0,72.0,29.96,South,174,3.0,7.0,77,0.00,,,0.01,,2013-07-08 01:11:00,
2013-07-07 20:22:00,79.0,72.0,29.96,South,173,2.0,5.0,80,0.00,,,0.01,,2013-07-08 01:22:00,
2013-07-07 20:32:00,79.0,72.0,29.96,South,173,2.0,5.0,80,0.00,,,0.01,,2013-07-08 01:32:00,
2013-07-07 20:43:00,78.0,72.0,29.96,SSE,165,3.0,6.0,82,0.00,,,0.01,,2013-07-08 01:43:00,
2013-07-07 20:52:00,77.0,71.0,29.96,SSE,166,3.0,6.0,83,0.00,,,0.01,,2013-07-08 01:52:00,
2013-07-07 21:02:00,77.0,71.0,29.96,SSE,166,3.0,6.0,83,0.00,,,0.01,,2013-07-08 02:02:00,
2013-07-07 21:11:00,76.0,71.0,29.97,SSE,166,3.0,6.0,85,0.00,,,0.01,,2013-07-08 02:11:00,
2013-07-07 21:22:00,76.0,72.0,29.97,SSE,163,4.0,7.0,86,0.00,,,0.01,,2013-07-08 02:22:00,
2013-07-07 21:33:00,76.0,72.0,29.97,SSE,163,4.0,7.0,86,0.00,,,0.01,,2013-07-08 02:33:00,
2013-07-07 21:42:00,75.0,71.0,29.97,SSE,167,4.0,8.0,87,0.00,,,0.01,,2013-07-08 02:42:00,
2013-07-07 21:52:00,76.0,72.0,29.97,South,170,5.0,9.0,86,0.00,,,0.01,,2013-07-08 02:52:00,
2013-07-07 22:01:00,76.0,72.0,29.97,South,170,5.0,9.0,86,0.00,,,0.01,,2013-07-08 03:01:00,
2013-07-07 22:12:00,76.0,72.0,29.98,South,173,5.0,9.0,87,0.00,,,0.01,,2013-07-08 03:12:00,
2013-07-07 22:23:00,75.0,71.0,29.98,South,175,4.0,8.0,88,0.00,,,0.01,,2013-07-08 03:23:00,
2013-07-07 22:34:00,75.0,71.0,29.98,South,175,4.0,8.0,88,0.00,,,0.01,,2013-07-08 03:34:00,
2013-07-07 22:42:00,75.0,72.0,29.98,South,187,4.0,8.0,89,0.00,,,0.01,,2013-07-08 03:42:00,
2013-07-07 22:52:00,74.0,71.0,29.98,South,184,4.0,7.0,89,0.00,,,0.01,,2013-07-08 03:52:00,
2013-07-07 23:02:00,74.0,71.0,29.98,South,184,4.0,7.0,89,0.00,,,0.01,,2013-07-08 04:02:00,
2013-07-07 23:12:00,74.0,71.0,29.98,South,179,4.0,7.0,89,0.00,,,0.01,,2013-07-08 04:12:00,
2013-07-07 23:22:00,74.0,71.0,29.98,South,179,4.0,7.0,89,0.00,,,0.01,,2013-07-08 04:22:00,
2013-07-07 23:33:00,74.0,71.0,29.99,South,172,3.0,7.0,89,0.00,,,0.01,,2013-07-08 04:33:00,
2013-07-07 23:42:00,74.0,71.0,30.00,South,183,4.0,7.0,90,0.00,,,0.01,,2013-07-08 04:42:00,
2013-07-07 23:53:00,73.0,70.0,30.00,South,180,4.0,7.0,90,0.00,,,0.01,,2013-07-08 04:53:00,